DW7901 Weather Reports


time (UTC)temp
C
wind
direction
speed
KPH
gust
KPH
rain 1hr
cm
rain 24hr
cm
rain mn
cm
humidity
%
barometer
mb
20260510195003 12 113 6.4 8.0 0.00 0.00 0.00 42 1015.3
20260510193004 12 90 3.2 4.8 0.00 0.00 0.00 39 1015.4
20260510192004 13 91 3.2 6.4 0.00 0.00 0.00 38 1015.2
20260510191003 13 109 4.8 8.0 0.00 0.00 0.00 38 1015.4
20260510185004 14 90 4.8 6.4 0.00 0.00 0.00 34 1015.5
20260510184004 15 98 3.2 6.4 0.00 0.00 0.00 32 1015.4
20260510182004 15 115 3.2 8.0 0.00 0.00 0.00 31 1015.4
20260510181004 16 95 4.8 6.4 0.00 0.00 0.00 30 1015.4
20260510180004 16 118 3.2 6.4 0.00 0.00 0.00 29 1015.2
20260510174003 18 99 3.2 6.4 0.00 0.00 0.00 23 1015.3
20260510172004 23 79 4.8 6.4 0.00 0.00 0.00 13 1015.4
20260510170004 24 86 3.2 8.0 0.00 0.00 0.00 11 1015.4
20260510165004 25 96 3.2 9.7 0.00 0.00 0.00 10 1015.9
20260510164004 25 75 3.2 9.7 0.00 0.00 0.00 10 1015.9
20260510163004 25 305 1.6 9.7 0.00 0.00 0.00 10 1016.0
20260510162004 27 277 6.4 12.9 0.00 0.00 0.00 10 1016.1
20260510160004 26 39 4.8 11.3 0.00 0.00 0.00 10 1016.5
20260510143004 26 321 3.2 12.9 0.00 0.00 0.00 10 1017.0
20260510142004 25 7 6.4 16.1 0.00 0.00 0.00 10 1017.2
20260510141004 25 337 3.2 9.7 0.00 0.00 0.00 10 1017.2
20260510135004 26 306 3.2 8.0 0.00 0.00 0.00 10 1017.4
20260510134004 26 215 3.2 9.7 0.00 0.00 0.00 10 1017.5
20260510122004 24 321 1.6 12.9 0.00 0.00 0.00 16 1018.2
20260510121004 25 245 4.8 12.9 0.00 0.00 0.00 15 1018.4
20260510115003 23 224 11.3 16.1 0.00 0.00 0.00 21 1018.9
20260510114003 24 214 3.2 9.7 0.00 0.00 0.00 18 1018.8
20260510113004 23 188 1.6 12.9 0.00 0.00 0.00 21 1019.1
20260510112004 23 174 6.4 12.9 0.00 0.00 0.00 22 1019.2
20260510111003 23 118 6.4 12.9 0.00 0.00 0.00 22 1019.0
20260510110004 23 121 6.4 11.3 0.00 0.00 0.00 22 1019.6
20260510105004 22 204 6.4 12.9 0.00 0.00 0.00 19 1019.7
20260510104004 21 248 1.6 12.9 0.00 0.00 0.00 20 1019.9
20260510103003 22 138 6.4 14.5 0.00 0.00 0.00 20 1020.0
20260510102004 22 143 9.7 14.5 0.00 0.00 0.00 21 1020.1
20260510101004 21 270 4.8 11.3 0.00 0.00 0.00 25 1020.3
20260510100004 21 244 4.8 12.9 0.00 0.00 0.00 23 1020.3
20260510095004 21 265 4.8 14.5 0.00 0.00 0.00 22 1020.2
20260510094004 22 201 3.2 14.5 0.00 0.00 0.00 23 1020.4
20260510093004 22 173 1.6 12.9 0.00 0.00 0.00 22 1020.5
20260510092003 22 183 6.4 16.1 0.00 0.00 0.00 27 1020.4
20260510091004 20 183 3.2 12.9 0.00 0.00 0.00 30 1020.5
20260510084004 20 189 1.6 9.7 0.00 0.00 0.00 30 1020.9
20260510082003 19 177 6.4 12.9 0.00 0.00 0.00 33 1020.9
20260510081003 18 279 1.6 6.4 0.00 0.00 0.00 33 1021.3
20260510080004 18 210 0.0 8.0 0.00 0.00 0.00 36 1021.3
20260510075004 17 329 3.2 8.0 0.00 0.00 0.00 39 1021.3
20260509202004 6 0 0.0 0.0 0.00 0.00 0.00 89 1022.9
20260509201003 7 0 0.0 0.0 0.00 0.00 0.00 88 1023.3
20260509200004 7 0 0.0 0.0 0.00 0.00 0.00 88 1023.1